Location: Gleizolles
(44.4833°N, 6.7667°E)
Time: 10:51:45
(UTC+00:00)

Tiros 1 - Pass Details

Date: 01 July 2024
Orbit: 624 x 656 km, 48.4° (Epoch: 20 July)

Event Time Altitude Azimuth Distance (km) Brightness Sun altitude
Rises 18:11:34 0° 183° (S) 2,897 10.3 10.1°
Reaches altitude 10° 18:15:36 10° 148° (SSE) 1,990 9.2 9.4°
Maximum altitude 18:16:53 11° 131° (SE) 1,921 9.0 9.2°
Drops below altitude 10° 18:18:09 10° 115° (ESE) 1,991 9.1 9.0°
Sets 18:22:12 0° 80° (E) 2,902 10.0 8.4°
